Regional Weather Roundup
Issued by NWS

Home | Current Version | Previous Version | Text Only | Print | Product List | Glossary On
Versions: 1 2 3 4 5 6 7 8 9 10 11 12 13 14 15 16 17 18 19 20 21 22 23 24 25 26 27 28 29 30 31 32 33 34 35 36 37 38 39 40 41 42 43 44 45 46 47 48 49 50
000
ASUS43 KLOT 310409
RWRIL

ILLINOIS REGIONAL WEATHER ROUNDUP
NATIONAL WEATHER SERVICE CHICAGO/ROMEOVILLE IL
1100 PM CDT MON MAY 30 2016

NOTE: "FAIR" INDICATES FEW OR NO CLOUDS BELOW 12,000 FEET WITH NO
SIGNIFICANT WEATHER AND/OR OBSTRUCTIONS TO VISIBILITY.

* THESE STATIONS ARE NOT UNDER NWS QUALITY CONTROL. THEY ALSO MAY NOT
  REPORT WEATHER SUCH AS PRECIPITATION OR FOG.

ILZ001-002-007-009-015-016-024-310500-
NORTHWEST ILLINOIS

CITY           SKY/WX    TMP DP  RH WIND       PRES   REMARKS
MOLINE         CLEAR     70  61  73 CALM      29.95S
STERLING*      CLEAR     72  59  63 S6        29.97R
SAVANNA*       PTCLDY    73  58  60 CALM      29.96R
$$

ILZ003-004-008-010-011-017-018-310500-
NORTH CENTRAL ILLINOIS

CITY           SKY/WX    TMP DP  RH WIND       PRES   REMARKS
ROCKFORD       CLOUDY    71  52  50 E6        29.99S
FREEPORT*      CLOUDY    66  55  68 CALM      29.99S
ROCHELLE*      CLEAR     68  56  65 CALM      29.98F
DE KALB*       PTCLDY    68  59  73 E7        29.99S
$$

ILZ005-006-012>014-019>023-310500-
NORTHEAST ILLINOIS

CITY           SKY/WX    TMP DP  RH WIND       PRES   REMARKS
CHICAGO-OHARE  MOCLDY    70  54  56 E7        29.99R
CHICAGO-MIDWAY PTCLDY    72  53  51 E10       29.99R
AURORA         CLEAR     70  59  68 E5        29.98R
LANSING*       CLOUDY    70  55  60 NE5       29.99S
JOLIET*        CLEAR     72  59  63 E7        29.98R
WAUKEGAN       CLOUDY    60  58  92 CALM      30.00R
DUPAGE AIRPORT PTCLDY    70  54  56 E7        29.98R
KANKAKEE*      PTCLDY    70  58  66 SE5       29.99R
WHEELING       CLOUDY    65  55  70 CALM      30.00S
MORRIS*        CLEAR     74  58  57 CALM      29.96R
ROMEOVILLE*    CLEAR     70  53  54 E10       29.98S
NORTHERLY ISL    N/A     65  54  67 N5          N/A
NORTHERLY ISL    N/A     65  54  67 N5          N/A
$$

LMZ740>746-310500-
SOUTHERN LAKE MICHIGAN

STATION/POSITION SKY/WX   TEMP    WIND        PRES    VSBY  WAVE
                          AIR SEA DIR/SP/G                  HT/PER
                          (F)     (DEG/KT/KT) (MB)    (MI)  (FT/S)
SOUTHERN BUOY              60 58  110/  4/  4 1015.5R         0
WILMETTE HARBOR            60 58  340/  2/  2   N/A           0
HARRISON CRIB              66      60/  1/  2   N/A
BURNHAM HARBOR             64     360/  3/  5   N/A
CALUMET HARBOR             65                   N/A
BURNS HARBOR               66      80/  9/ 11 1015.6S
MICHIGAN CITY              67      40/  9/ 10   N/A
MICHIGAN CITY 6N           64 62   50/  6/  8   N/A           1
ST. JOSEPH                 66 65   40/  4/  6   N/A           1
$$

ILZ025>027-034>036-040-047-049-050-058-095>099-310500-
WEST-CENTRAL ILLINOIS

CITY           SKY/WX    TMP DP  RH WIND       PRES   REMARKS
QUINCY         PTCLDY    70  61  73 SW7       29.99R
GALESBURG*     CLEAR     71  63  77 CALM      29.97S
MACOMB*        CLEAR     71  65  82 S7        29.99F
JACKSONVILLE*  CLOUDY    71  60  67 CALM      29.97F
PITTSFIELD*    CLOUDY    74  60  60 W9        30.00F
$$

ILZ028>032-037-038-041>044-048-051>054-059>061-310500-
CENTRAL ILLINOIS

CITY           SKY/WX    TMP DP  RH WIND       PRES   REMARKS
PONTIAC        PTCLDY    74  63  66 SW6       29.98S
BLOOMINGTON    CLOUDY    72  63  73 SW8       30.01R
DECATUR        MOCLDY    75  56  51 VRB3      29.98F
PEORIA         PTCLDY    71  63  75 S6        29.98R
LACON*         PTCLDY    68  62  79 CALM      29.95F
LINCOLN*       MOCLDY    74  60  62 S3        29.99S
SPRINGFIELD    CLOUDY    73  57  57 CALM      29.98F
TAYLORVILLE    PTCLDY    69  59  69 CALM      29.98F
$$

ILZ033-039-045-046-055>057-062-063-310500-
EAST-CENTRAL ILLINOIS

CITY           SKY/WX    TMP DP  RH WIND       PRES   REMARKS
CHAMPAIGN      PTCLDY    70  59  68 W7        29.99S
RANTOUL*       PTCLDY    73  60  63 W8        29.98S
MATTOON        CLOUDY    69  65  86 CALM      29.98F
PARIS*         PTCLDY    71  63  75 CALM      30.00S
$$

ILZ079-100>102-310500-
SOUTHWEST ILLINOIS

CITY           SKY/WX    TMP DP  RH WIND       PRES   REMARKS
ALTON          CLOUDY    68  62  80 CALM      29.98S
BELLEVILLE     CLOUDY    71  67  89 CALM      29.96F
CAHOKIA*       CLOUDY    73  61  65 W5        29.98R
SPARTA*        CLOUDY    73  66  78 CALM      29.99S
$$

ILZ064>066-069>071-074>076-080>082-084>086-088>090-092>094-310500-
SOUTH-CENTRAL ILLINOIS

CITY           SKY/WX    TMP DP  RH WIND       PRES   REMARKS
CARBONDALE     PTCLDY    69  66  90 CALM      29.98S
CAIRO*         PTCLDY    71  69  95 CALM      29.97S
EFFINGHAM*     CLOUDY    71  69  94 CALM      30.00S
MARION         CLEAR     68  66  94 CALM      29.99S
MT. VERNON     MOCLDY    66  63  88 CALM      29.98F
CENTRALIA*     MOCLDY    71  69  95 CALM      29.97F
SALEM*         CLOUDY    74  67  80 CALM      29.98S
METROPOLIS*    PTCLDY    69  69  99 CALM      29.99R
$$

ILZ067-068-072-073-078-083-087-091-310500-
SOUTHEAST ILLINOIS

CITY           SKY/WX    TMP DP  RH WIND       PRES   REMARKS
LAWRENCEVILLE  MOCLDY    70  64  81 CALM      29.98F
FLORA*         CLOUDY    75  68  78 CALM      29.98S
FAIRFIELD*     MOCLDY    70  65  84 CALM      29.96F
HARRISBURG*    CLEAR     71  68  91 CALM      29.97F
ROBINSON*      MOCLDY    66  63  89 CALM      29.99S
CARMI*         CLOUDY    70  68  93 CALM      29.97S
$$

ABBREVIATIONS USED IN REMARKS
   TC - TEMPERATURE IN CELSIUS
  WCI - WIND CHILL INDEX
   HX - HEAT INDEX
  VSB - VISIBILITY
$$





USA.gov is the U.S. government's official web portal to all federal, state and local government web resources and services.